Back to catalog

STARLINK-31509

AliveCommunicationsVLEO
NORAD 59533·PAYLOAD·🇺🇸 United States

Launched Apr 17, 2024 from Cape Canaveral Space Force Station

Loading…

Next Passes (next 24 hours)

TLE

FreshSource: CelesTrak SupGP

Epoch: Sep 14, 2026, 20:48 UTC

1 59533C 24073Y   26257.86715278 -.00020129  00000+0 -72909-3 0  2579
2 59533  43.0038 330.0396 0001691 273.6449  76.7948 15.27588045    18

Track STARLINK-31509 in real time with AllMySat

Download on the App Store